Location: Yellowknife
(62.4500°N, 114.3500°W)
Time: 08:34:08
(UTC-06:00)

BlueWalker 3 - Visible Passes

Search period start: 21 September 2023 00:00
Search period end: 01 October 2023 00:00
Orbit: 492 x 508 km, 53.2° (Epoch: 20 September)

Date Brightness Start Highest point End Pass type
(mag) Time Alt. Az. Time Alt. Az. Time Alt. Az.
21 Sep 4.1 05:23:34 12° S 05:25:29 16° SSE 05:27:52 10° ESE visible
22 Sep 4.0 05:02:58 14° S 05:04:02 16° SSE 05:06:24 10° ESE visible
23 Sep 3.9 04:42:21 16° SSE 04:42:33 16° SSE 04:44:55 10° ESE visible
23 Sep 3.6 06:17:07 10° SW 06:20:04 21° S 06:23:02 10° SE visible
24 Sep 4.1 04:21:43 15° SSE 04:21:43 15° SSE 04:23:25 10° ESE visible
24 Sep 3.6 05:56:20 13° SW 05:58:34 21° S 06:01:32 10° SE visible
25 Sep 4.4 04:01:05 13° SE 04:01:05 13° SE 04:01:55 10° ESE visible
25 Sep 3.5 05:35:42 18° SSW 05:37:03 21° S 05:40:01 10° SE visible
26 Sep 3.4 05:15:04 21° S 05:15:32 21° S 05:18:29 10° SE visible
27 Sep 3.6 04:54:28 21° S 04:54:28 21° S 04:56:56 10° SE visible
27 Sep 3.9 06:29:07 10° WSW 06:31:31 16° SSW 06:33:54 10° SSE visible
28 Sep 4.0 04:33:54 17° SSE 04:33:54 17° SSE 04:35:22 10° SE visible
28 Sep 3.8 06:08:32 13° SW 06:09:57 16° SSW 06:12:21 10° SSE visible
29 Sep 4.5 04:13:23 12° SE 04:13:23 12° SE 04:13:48 10° SE visible
29 Sep 3.7 05:48:01 16° SSW 05:48:23 16° SSW 05:50:45 10° SSE visible
30 Sep 3.9 05:27:35 15° S 05:27:35 15° S 05:29:09 10° SSE visible
